Location: Courcelles
(49.2596°N, 1.7419°E)
Time: 07:11:10
(UTC+00:00)

SJ-7 - Pass Details

Date: 17 November 2025
Orbit: 500 x 523 km, 97.7° (Epoch: 06 December)

Event Time Altitude Azimuth Distance (km) Brightness Sun altitude
Rises 17:45:31 0° 151° (SSE) 2,586 7.6 -15.6°
Reaches altitude 10° 17:47:38 10° 146° (SE) 1,706 6.6 -15.9°
Maximum altitude 17:51:10 48° 72° (ENE) 667 4.3 -16.5°
Drops below altitude 10° 17:54:44 10° 357° (N) 1,720 6.8 -17.1°
Sets 17:56:52 0° 352° (N) 2,611 7.8 -17.4°
